When you browse on this site, cookies collect data to enhance your experience and personalize the content and advertising you see.
Visit our Privacy Policy to learn more. By continuing to use the site, you agree to this use of cookies and data.
  • In Hungary
  • List of Countries
  • For 7 days
  • Water Temperature
  • Weather Map
  • News
  • Weather Widgets
  • user-avatar
    Login

    Hourly Weather Veski

    Today, 25 January, Saturday

    Time Temperature Precipitation Wind Pressure Humidity
    00:00 -1°C° 0.2 mm 4 mps 731 mmHg 95%
    01:00 -1°C° 0.2 mm 4 mps 731 mmHg 93%
    02:00 -1°C° 0.2 mm 4 mps 731 mmHg 91%
    03:00 -1°C° 0 mm 4 mps 731 mmHg 89%
    04:00 -1°C° 0 mm 4 mps 731 mmHg 86%
    05:00 -2°C° 0 mm 4 mps 731 mmHg 84%
    06:00 -2°C° 0 mm 4 mps 731 mmHg 86%
    07:00 -2°C° 0 mm 4 mps 730 mmHg 89%
    08:00 -2°C° 0 mm 3 mps 730 mmHg 91%
    09:00 -2°C° 0 mm 4 mps 730 mmHg 88%
    10:00 -1°C° 0 mm 5 mps 729 mmHg 86%
    11:00 -2°C° 0 mm 6 mps 729 mmHg 83%
    12:00 -2°C° 0.3 mm 6 mps 729 mmHg 78%
    13:00 -2°C° 0.3 mm 6 mps 729 mmHg 73%
    14:00 -2°C° 0.3 mm 6 mps 729 mmHg 67%
    15:00 -3°C° 0 mm 6 mps 730 mmHg 71%
    16:00 -4°C° 0 mm 6 mps 731 mmHg 75%
    17:00 -5°C° 0 mm 6 mps 731 mmHg 79%
    18:00 -5°C° 0.1 mm 6 mps 731 mmHg 80%
    19:00 -5°C° 0.1 mm 6 mps 732 mmHg 81%
    20:00 -5°C° 0.1 mm 6 mps 732 mmHg 83%
    21:00 -5°C° 0 mm 6 mps 733 mmHg 82%
    22:00 -5°C° 0 mm 6 mps 734 mmHg 80%
    23:00 -6°C° 0 mm 6 mps 735 mmHg 79%

    Tomorrow, 26 January, Sunday

    Time Temperature Precipitation Wind Pressure Humidity
    00:00 -6°C° 0 mm 6 mps 736 mmHg 79%
    01:00 -6°C° 0 mm 5 mps 737 mmHg 79%
    02:00 -6°C° 0 mm 5 mps 737 mmHg 80%
    03:00 -6°C° 0 mm 5 mps 738 mmHg 80%
    04:00 -7°C° 0 mm 4 mps 739 mmHg 81%
    05:00 -7°C° 0 mm 4 mps 739 mmHg 81%
    06:00 -7°C° 0 mm 4 mps 740 mmHg 82%
    07:00 -6°C° 0 mm 3 mps 740 mmHg 83%
    08:00 -6°C° 0 mm 3 mps 741 mmHg 83%
    09:00 -5°C° 0 mm 3 mps 741 mmHg 82%
    10:00 -4°C° 0 mm 3 mps 741 mmHg 80%
    11:00 -4°C° 0 mm 4 mps 741 mmHg 78%
    12:00 -3°C° 0 mm 4 mps 741 mmHg 80%
    13:00 -3°C° 0 mm 4 mps 740 mmHg 82%
    14:00 -4°C° 0 mm 5 mps 740 mmHg 84%
    15:00 -4°C° 0.2 mm 5 mps 739 mmHg 85%
    16:00 -2°C° 0.2 mm 5 mps 738 mmHg 87%
    17:00 -3°C° 0.2 mm 6 mps 737 mmHg 88%
    18:00 -2°C° 0.1 mm 6 mps 737 mmHg 90%
    19:00 -1°C° 0.1 mm 6 mps 737 mmHg 91%
    20:00 +1°C° 0.1 mm 6 mps 736 mmHg 93%
    21:00 +1°C° 0.1 mm 6 mps 736 mmHg 92%
    22:00 +1°C° 0.1 mm 6 mps 737 mmHg 92%
    23:00 +1°C° 0.1 mm 5 mps 737 mmHg 91%

    Day after tomorrow, 27 January, Monday

    Time Temperature Precipitation Wind Pressure Humidity
    00:00 +1°C° 0 mm 5 mps 737 mmHg 91%
    01:00 +1°C° 0 mm 5 mps 737 mmHg 91%
    02:00 +1°C° 0 mm 5 mps 738 mmHg 91%
    03:00 +1°C° 0.1 mm 4 mps 738 mmHg 93%
    04:00 +1°C° 0.1 mm 4 mps 738 mmHg 94%
    05:00 0°C° 0.1 mm 4 mps 739 mmHg 96%
    06:00 +1°C° 0.2 mm 3 mps 739 mmHg 96%
    07:00 +1°C° 0.2 mm 3 mps 740 mmHg 97%
    08:00 +1°C° 0.2 mm 2 mps 740 mmHg 97%
    09:00 +1°C° 0.1 mm 2 mps 741 mmHg 97%
    10:00 -1°C° 0.1 mm 2 mps 741 mmHg 96%
    11:00 +1°C° 0.1 mm 1 mps 742 mmHg 96%
    12:00 +1°C° 0.1 mm 1 mps 742 mmHg 95%
    13:00 +1°C° 0.1 mm 1 mps 742 mmHg 95%
    14:00 0°C° 0.1 mm 1 mps 742 mmHg 94%
    15:00 -2°C° 0.3 mm 2 mps 742 mmHg 95%
    16:00 -2°C° 0.3 mm 2 mps 742 mmHg 96%
    17:00 -2°C° 0.3 mm 2 mps 742 mmHg 97%
    18:00 -2°C° 0.5 mm 2 mps 742 mmHg 97%
    19:00 -2°C° 0.5 mm 3 mps 742 mmHg 97%
    20:00 -4°C° 0.5 mm 3 mps 742 mmHg 96%
    21:00 -4°C° 0.5 mm 3 mps 742 mmHg 96%
    22:00 -2°C° 0.5 mm 2 mps 742 mmHg 96%
    23:00 -2°C° 0.5 mm 2 mps 742 mmHg 97%

    28 January, Tuesday

    Time Temperature Precipitation Wind Pressure Humidity
    00:00 -2°C° 0.3 mm 2 mps 741 mmHg 97%
    01:00 -2°C° 0.3 mm 2 mps 741 mmHg 97%
    02:00 +1°C° 0.3 mm 1 mps 741 mmHg 98%
    03:00 +1°C° 0.3 mm 1 mps 741 mmHg 98%
    04:00 +1°C° 0.3 mm 1 mps 741 mmHg 98%
    05:00 +2°C° 0.3 mm 1 mps 741 mmHg 98%
    06:00 +2°C° 0.2 mm 1 mps 740 mmHg 98%
    07:00 +2°C° 0.2 mm 1 mps 740 mmHg 98%
    08:00 +2°C° 0.2 mm 1 mps 740 mmHg 98%
    09:00 +1°C° 0.2 mm 2 mps 740 mmHg 98%
    10:00 +1°C° 0.2 mm 2 mps 740 mmHg 98%
    11:00 +1°C° 0.2 mm 2 mps 740 mmHg 99%
    12:00 +1°C° 0.2 mm 2 mps 740 mmHg 98%
    13:00 +1°C° 0.2 mm 2 mps 740 mmHg 98%
    14:00 +1°C° 0.2 mm 2 mps 739 mmHg 98%
    15:00 +1°C° 0.1 mm 2 mps 739 mmHg 98%
    16:00 -1°C° 0.1 mm 2 mps 739 mmHg 98%
    17:00 -1°C° 0.1 mm 2 mps 739 mmHg 98%
    18:00 -1°C° 0.1 mm 2 mps 739 mmHg 97%
    19:00 -1°C° 0.1 mm 2 mps 739 mmHg 97%
    20:00 -2°C° 0.1 mm 2 mps 739 mmHg 97%
    21:00 -2°C° 0.1 mm 2 mps 739 mmHg 97%
    22:00 -2°C° 0.1 mm 2 mps 739 mmHg 97%
    23:00 -2°C° 0.1 mm 2 mps 739 mmHg 97%

    29 January, Wednesday

    Time Temperature Precipitation Wind Pressure Humidity
    00:00 -1°C° 0.3 mm 2 mps 739 mmHg 98%
    01:00 -1°C° 0.3 mm 2 mps 739 mmHg 98%
    02:00 -1°C° 0.3 mm 2 mps 738 mmHg 98%
    03:00 -1°C° 0.1 mm 2 mps 738 mmHg 98%
    04:00 +1°C° 0.1 mm 2 mps 738 mmHg 98%
    05:00 +1°C° 0.1 mm 2 mps 738 mmHg 98%
    06:00 +1°C° 0.1 mm 2 mps 738 mmHg 98%
    07:00 +1°C° 0.1 mm 2 mps 738 mmHg 98%
    08:00 0°C° 0.1 mm 3 mps 738 mmHg 98%
    09:00 0°C° 0 mm 3 mps 738 mmHg 97%
    10:00 0°C° 0 mm 3 mps 738 mmHg 96%
    11:00 0°C° 0 mm 3 mps 738 mmHg 95%
    12:00 0°C° 0 mm 3 mps 738 mmHg 95%
    13:00 0°C° 0 mm 3 mps 738 mmHg 95%
    14:00 0°C° 0 mm 3 mps 738 mmHg 95%
    15:00 0°C° 0 mm 3 mps 738 mmHg 96%
    16:00 0°C° 0 mm 3 mps 738 mmHg 96%
    17:00 0°C° 0 mm 3 mps 738 mmHg 97%
    18:00 0°C° 0 mm 3 mps 738 mmHg 97%
    19:00 0°C° 0 mm 3 mps 737 mmHg 97%
    20:00 -1°C° 0 mm 4 mps 737 mmHg 97%
    21:00 0°C° 0 mm 3 mps 737 mmHg 97%
    22:00 0°C° 0 mm 3 mps 737 mmHg 97%
    23:00 0°C° 0 mm 3 mps 737 mmHg 96%

    30 January, Thursday

    Time Temperature Precipitation Wind Pressure Humidity
    00:00 0°C° 0 mm 3 mps 737 mmHg 96%
    01:00 0°C° 0 mm 3 mps 736 mmHg 96%
    02:00 -2°C° 0 mm 4 mps 736 mmHg 96%
    03:00 -2°C° 0.1 mm 4 mps 736 mmHg 96%
    04:00 -2°C° 0.1 mm 4 mps 735 mmHg 96%
    05:00 -2°C° 0.1 mm 4 mps 735 mmHg 97%
    06:00 -2°C° 0.1 mm 4 mps 735 mmHg 97%
    07:00 -2°C° 0.1 mm 4 mps 734 mmHg 97%
    08:00 -2°C° 0.1 mm 4 mps 734 mmHg 97%
    09:00 -2°C° 0.1 mm 4 mps 734 mmHg 96%
    10:00 -2°C° 0.1 mm 4 mps 734 mmHg 96%
    11:00 -2°C° 0.1 mm 4 mps 734 mmHg 96%
    12:00 -2°C° 0.2 mm 4 mps 733 mmHg 96%
    13:00 -2°C° 0.2 mm 4 mps 733 mmHg 95%
    14:00 -2°C° 0.2 mm 4 mps 733 mmHg 95%
    15:00 -2°C° 0.2 mm 4 mps 733 mmHg 95%
    16:00 -2°C° 0.2 mm 4 mps 733 mmHg 95%
    17:00 -3°C° 0.2 mm 4 mps 732 mmHg 95%
    18:00 -3°C° 0.3 mm 4 mps 732 mmHg 95%
    19:00 -3°C° 0.3 mm 4 mps 732 mmHg 95%
    20:00 -3°C° 0.3 mm 4 mps 732 mmHg 95%
    21:00 -4°C° 0.2 mm 3 mps 732 mmHg 95%
    22:00 -4°C° 0.2 mm 3 mps 732 mmHg 94%
    23:00 -4°C° 0.2 mm 3 mps 732 mmHg 94%
    Show more